DW6178 Weather Reports


Display with metric or nautical units.
time (UTC)temp
F
wind
direction
speed
MPH
gust
MPH
rain 1hr
in
rain 24hr
in
rain mn
in
humidity
%
barometer
mb
20260506143006 40 310 1.0 3.0 0.00 0.03 0.00 94 1020.3
20260506141504 39 302 1.0 3.0 0.00 0.03 0.00 94 1020.0
20260506140058 39 302 1.0 4.0 0.00 0.07 0.00 94 1019.9
20260506134544 38 310 1.0 3.0 0.00 0.07 0.00 94 1019.9
20260506133022 38 307 1.0 2.0 0.00 0.07 0.00 94 1019.6
20260506131532 38 308 1.0 2.0 0.00 0.07 0.00 94 1019.5
20260506130001 38 320 1.0 3.0 0.00 0.07 0.00 94 1019.3
20260506124559 38 316 1.0 3.0 0.00 0.07 0.00 94 1019.2
20260506123045 37 301 2.0 3.0 0.00 0.07 0.00 94 1018.9
20260506121550 37 317 1.0 2.0 0.00 0.07 0.00 94 1018.9
20260506120029 37 317 1.0 2.0 0.00 0.13 0.00 94 1018.7
20260506114521 37 317 1.0 2.0 0.00 0.13 0.00 94 1018.7
20260506113002 37 318 1.0 2.0 0.00 0.13 0.00 94 1018.6
20260506111502 37 316 1.0 2.0 0.00 0.13 0.00 94 1018.6
20260506110044 37 316 1.0 2.0 0.00 0.21 0.00 94 1018.5
20260506104553 37 316 1.0 2.0 0.00 0.21 0.00 94 1018.5
20260506103025 37 316 1.0 2.0 0.00 0.21 0.00 94 1018.4
20260506101529 37 316 1.0 2.0 0.00 0.21 0.00 94 1018.3
20260506100015 36 316 1.0 3.0 0.00 0.22 0.00 94 1018.2
20260506094505 36 310 1.0 3.0 0.00 0.22 0.00 94 1018.2
20260506093047 36 315 1.0 3.0 0.00 0.22 0.00 94 1018.1
20260506091546 36 310 1.0 3.0 0.00 0.22 0.00 94 1018.2
20260506090024 37 311 1.0 3.0 0.00 0.22 0.00 94 1018.3
20260506084523 37 319 2.0 3.0 0.00 0.22 0.00 94 1018.3
20260506083003 37 305 2.0 5.0 0.00 0.22 0.00 94 1018.5
20260506081507 37 315 2.0 4.0 0.00 0.22 0.00 94 1018.5
20260506073023 37 301 2.0 4.0 0.00 0.26 0.00 94 1018.8
20260506071523 37 297 2.0 4.0 0.00 0.26 0.00 94 1018.7
20260506061547 38 291 0.0 0.0 0.00 0.32 0.26 94 1018.5
20260506044547 38 242 0.0 0.0 0.00 0.38 0.26 94 1017.7
20260506043019 38 242 0.0 0.0 0.00 0.38 0.26 94 1017.6
20260506041518 38 241 0.0 0.0 0.00 0.38 0.26 94 1017.5
20260506040058 38 239 0.0 0.0 0.00 0.38 0.26 94 1017.3
20260506034613 37 239 0.0 0.0 0.00 0.38 0.26 94 1017.0
20260506033036 38 239 0.0 0.0 0.00 0.38 0.26 94 1016.8
20260506031544 38 236 0.0 0.0 0.00 0.38 0.26 94 1016.8
20260506030016 38 236 0.0 0.0 0.00 0.38 0.26 94 1016.6
20260506024519 38 236 0.0 0.0 0.00 0.38 0.26 94 1016.3
20260506023101 38 236 0.0 0.0 0.00 0.38 0.26 94 1016.3
20260506021554 38 240 0.0 4.0 0.00 0.38 0.26 94 1016.2
20260506020036 38 276 1.0 3.0 0.00 0.38 0.26 94 1016.1
20260506014535 38 242 1.0 2.0 0.00 0.38 0.26 94 1015.8
20260506013020 38 228 1.0 3.0 0.00 0.38 0.26 94 1015.7
20260506011519 38 246 1.0 4.0 0.00 0.38 0.26 94 1015.6
20260506010119 38 242 1.0 3.0 0.00 0.38 0.26 94 1015.6
20260506004557 38 229 0.0 4.0 0.00 0.38 0.26 94 1015.4
20260506003038 38 200 1.0 5.0 0.00 0.38 0.26 94 1015.5
20260506001538 38 216 1.0 7.0 0.00 0.38 0.26 94 1015.5
20260506000024 38 215 1.0 6.0 0.00 0.38 0.26 94 1015.5
20260505234524 38 127 2.0 6.0 0.00 0.38 0.26 94 1015.5
20260505233022 38 204 1.0 7.0 0.00 0.38 0.26 94 1015.5
20260505231522 39 215 1.0 3.0 0.00 0.38 0.26 94 1015.6
20260505230035 39 193 1.0 5.0 0.00 0.38 0.26 94 1015.5
20260505224521 39 177 2.0 6.0 0.00 0.38 0.26 94 1015.4
20260505223020 38 226 0.0 3.0 0.00 0.38 0.26 94 1015.5
20260505221520 38 214 1.0 8.0 0.00 0.38 0.26 94 1015.4
20260505220002 39 194 1.0 6.0 0.00 0.38 0.26 94 1015.5
20260505214502 38 217 0.0 9.0 0.00 0.38 0.26 94 1015.6
20260505213043 38 208 1.0 9.0 0.00 0.38 0.26 94 1015.6
20260505211546 38 196 2.0 8.0 0.00 0.38 0.26 94 1015.7
20260505210025 38 165 2.0 9.0 0.00 0.38 0.26 94 1015.7
20260505204523 39 187 3.0 7.0 0.00 0.38 0.26 94 1015.7
20260505203006 39 242 2.0 9.0 0.00 0.38 0.26 94 1015.7
20260505201504 39 239 2.0 5.0 0.00 0.38 0.26 94 1015.7
20260505200047 39 197 1.0 7.0 0.00 0.38 0.26 94 1015.7
20260505194546 39 205 2.0 5.0 0.00 0.38 0.26 94 1015.8
20260505193028 38 138 3.0 8.0 0.00 0.38 0.26 94 1015.8
20260505191527 38 211 2.0 7.0 0.00 0.38 0.26 94 1015.8
20260505190007 38 250 1.0 7.0 0.00 0.38 0.26 94 1015.8
20260505184507 38 194 2.0 7.0 0.00 0.38 0.26 94 1015.8
20260505183145 38 193 0.0 7.0 0.00 0.38 0.26 94 1015.7
20260505181548 38 256 1.0 11.0 0.00 0.38 0.26 94 1015.6
20260505180048 38 262 2.0 7.0 0.00 0.38 0.26 94 1015.6
20260505174528 37 212 2.0 7.0 0.00 0.38 0.26 94 1015.4
20260505173036 37 248 1.0 9.0 0.00 0.38 0.26 94 1015.1
20260505171512 37 266 1.0 6.0 0.00 0.38 0.26 94 1014.9
20260505170017 37 270 1.0 13.0 0.00 0.38 0.26 94 1014.7
20260505164510 38 248 1.0 7.0 0.01 0.38 0.26 94 1014.4
20260505163011 37 232 3.0 7.0 0.01 0.38 0.26 94 1014.4
20260505161508 37 288 2.0 8.0 0.01 0.38 0.26 94 1014.2
20260505153006 37 183 2.0 9.0 0.01 0.37 0.25 94 1014.0
20260505151548 37 239 1.0 5.0 0.01 0.37 0.25 94 1013.9